Gwinn, MI

2:21 AM EDT on June 26, 2017 (GMT -0400)
Sawyer International

Weather History for KSAW - May, 2014

Change the Weather History Date:

Friday, May 9, 2014

  Actual Average (KESC) Record (KESC)
Temperature  
Mean Temperature 62 °F -  
Max Temperature 75 °F 57 °F 81 °F (1987)
Min Temperature 48 °F 39 °F 23 °F (2017)
Degree Days  
Heating Degree Days 4    
Growing Degree Days 12 (Base 50)    
Moisture  
Dew Point 50 °F    
Average Humidity 84    
Maximum Humidity 100    
Minimum Humidity 38    
Precipitation  
Precipitation 0.17 in - - ()
Sea Level Pressure  
Sea Level Pressure 29.57 in    
Wind  
Wind Speed 12 mph (SSW)    
Max Wind Speed 25 mph    
Max Gust Speed 32 mph    
Visibility 5 miles    
Events Rain , Thunderstorm    
Averages and records for this station are not official NWS values.
T = Trace of Precipitation, MM = Missing Value Source: NWS Daily Summary

Daily Weather History Graph

Daily Weather History Graph

Search for Another Location

Airport or City:

Trip Planner

Search our weather history database for the weather conditions in past years. The results will help you decide how hot, cold, wet, or windy it might be!

Date:

Astronomy

May. 09, 2014 Rise Set
Actual Time 6:23 AM EDT 9:08 PM EDT
Civil Twilight 5:49 AM EDT 9:43 PM EDT
Nautical Twilight 5:05 AM EDT 10:27 PM EDT
Astronomical Twilight 4:14 AM EDT 11:19 PM EDT
Moon 3:48 PM EDT (5/9) 3:45 AM EDT (5/9)
Length of Visible Light 15h 54m
Length of Day
14h 44m
Waxing Gibbous, 73% of the Moon is Illuminated
May 9
Waxing Gibbous
May 14
Full
May 21
Last Quarter
May 28
New
Jun 5
First Quarter

Hourly Weather History & Observations

Time (EDT) Temp. Dew Point Humidity Pressure Visibility Wind Dir Wind Speed Gust Speed Precip Events Conditions
12:17 AM 51.3 °F 50.0 °F 95% 29.68 in 0.5 mi SSE 15.0 mph 23.0 mph 0.04 in Rain , Thunderstorm Heavy Thunderstorms and Rain
12:36 AM 52.0 °F 50.9 °F 96% 29.68 in 3.0 mi South 12.7 mph - 0.10 in Thunderstorm Overcast
12:57 AM 53.6 °F 53.6 °F 100% 29.66 in 2.5 mi SSE 13.8 mph 26.5 mph N/A Rain , Thunderstorm Rain
1:17 AM 54.7 °F 53.6 °F 96% 29.65 in 5.0 mi South 13.8 mph - 0.06 in Rain Light Rain
1:37 AM 54.5 °F 53.4 °F 96% 29.64 in 4.0 mi SSE 12.7 mph 25.3 mph 0.12 in Rain Heavy Rain
1:57 AM 55.2 °F 53.8 °F 95% 29.63 in 5.0 mi South 9.2 mph - 0.14 in   Overcast
2:17 AM 55.4 °F 54.0 °F 95% 29.62 in 5.0 mi South 10.4 mph - N/A   Scattered Clouds
2:37 AM 55.4 °F 54.1 °F 96% 29.62 in 3.0 mi South 11.5 mph - N/A   Mostly Cloudy
2:57 AM 55.4 °F 54.3 °F 96% 29.62 in 2.0 mi South 12.7 mph - N/A   Overcast
3:17 AM 54.5 °F 53.6 °F 97% 29.65 in 1.8 mi WSW 9.2 mph - N/A   Overcast
3:37 AM 54.5 °F 53.6 °F 97% 29.65 in 2.0 mi West 8.1 mph - N/A   Overcast
3:57 AM 54.5 °F 53.4 °F 96% 29.63 in 2.0 mi West 3.5 mph - N/A Rain Light Rain
4:17 AM 54.3 °F 53.2 °F 96% 29.62 in 1.8 mi SSE 5.8 mph - 0.01 in Rain Rain
4:37 AM 54.0 °F 53.1 °F 97% 29.60 in 1.5 mi Calm Calm - 0.03 in Rain Light Rain
4:57 AM 53.6 °F 52.7 °F 97% 29.61 in 1.8 mi South 3.5 mph - 0.03 in   Overcast
5:17 AM 53.4 °F 52.5 °F 97% 29.58 in 2.5 mi Calm Calm - N/A Rain Light Rain
5:37 AM 53.2 °F 52.3 °F 97% 29.58 in 2.0 mi SSE 8.1 mph - N/A   Overcast
5:57 AM 52.7 °F 51.8 °F 97% 29.57 in 1.2 mi SSE 10.4 mph - N/A   Overcast
6:50 AM 51.8 °F 50.0 °F 94% 29.57 in 0.8 mi South 8.1 mph - N/A   Overcast
7:50 AM 51.8 °F 50.0 °F 94% 29.57 in 0.8 mi SSW 10.4 mph - N/A   Overcast
8:30 AM 51.8 °F 51.8 °F 100% 29.55 in 1.2 mi South 10.4 mph - N/A   Overcast
8:50 AM 53.6 °F 51.8 °F 94% 29.55 in 1.2 mi South 9.2 mph - N/A   Overcast
9:50 AM 55.4 °F 53.6 °F 94% 29.53 in 1.2 mi South 10.4 mph - N/A   Overcast
10:10 AM 55.4 °F 53.6 °F 94% 29.53 in 0.8 mi South 11.5 mph - N/A   Overcast
10:50 AM 57.2 °F 57.2 °F 100% 29.51 in 1.0 mi SSW 12.7 mph - N/A   Overcast
11:15 AM 59.0 °F 57.2 °F 94% 29.50 in 2.0 mi SSW 9.2 mph - N/A   Overcast
12:45 PM 62.6 °F 59.0 °F 88% 29.46 in 7.0 mi South 10.4 mph - N/A   Overcast
12:50 PM 62.6 °F 48.2 °F 59% 29.46 in 7.0 mi South 11.5 mph - N/A   Overcast
1:50 PM 68.0 °F 60.8 °F 78% 29.43 in 10.0 mi South 16.1 mph 21.9 mph N/A   Mostly Cloudy
2:50 PM 71.6 °F 59.0 °F 64% 29.40 in 10.0 mi SSW 11.5 mph 24.2 mph N/A   Scattered Clouds
3:46 PM 75.2 °F 48.2 °F 38% 29.39 in 10.0 mi SW 18.4 mph 29.9 mph N/A   Scattered Clouds
4:45 PM 69.8 °F 46.4 °F 43% 29.42 in 10.0 mi WSW 20.7 mph 29.9 mph N/A   Clear
5:50 PM 64.4 °F 46.4 °F 52% 29.46 in 10.0 mi WSW 23.0 mph 32.2 mph N/A   Clear
6:50 PM 60.8 °F 44.6 °F 55% 29.49 in 10.0 mi WSW 19.6 mph 25.3 mph N/A   Overcast
7:55 PM 55.4 °F 44.6 °F 67% 29.52 in 10.0 mi WSW 17.3 mph 24.2 mph N/A   Overcast
8:45 PM 53.6 °F 42.8 °F 67% 29.54 in 10.0 mi WSW 18.4 mph 27.6 mph N/A   Overcast
9:45 PM 50.0 °F 42.8 °F 76% 29.57 in 10.0 mi WSW 13.8 mph 19.6 mph N/A   Overcast
10:17 PM 50.0 °F 40.5 °F 70% 29.58 in 10.0 mi West 25.3 mph - N/A   Overcast
10:36 PM 50.0 °F 39.7 °F 68% 29.59 in 10.0 mi West 17.3 mph 28.8 mph N/A   Overcast
10:57 PM 49.5 °F 39.2 °F 68% 29.59 in 10.0 mi WSW 20.7 mph 31.1 mph N/A   Overcast
11:17 PM 49.1 °F 38.3 °F 66% 29.60 in 10.0 mi West 18.4 mph 26.5 mph N/A   Overcast
11:37 PM 48.4 °F 38.3 °F 68% 29.61 in 10.0 mi West 16.1 mph 20.7 mph N/A   Overcast
11:57 PM 48.2 °F 38.1 °F 68% 29.61 in 10.0 mi West 17.3 mph 21.9 mph N/A   Overcast